GFSNE_sfc_30mbdewp_360.txt.gz
Dewpoint
53 55 54 52 48 46 49 47 42 40 41 43 43 44 43 42 43 42 41 41 40 40 41 41 41 40 39 38 37 36 35 34 34 33 33 33 34 34
54 54 54 54 51 48 50 49 48 44 44 45 44 45 44 42 42 39 39 42 40 39 39 40 41 41 39 38 36 36 35 34 33 33 33 32 32 33
54 54 53 54 52 49 50 50 48 48 45 46 46 46 45 42 41 42 41 41 41 40 39 38 39 40 40 39 38 36 35 34 33 33 32 32 31 31
55 54 54 55 54 51 50 50 50 49 47 45 47 47 45 45 43 42 42 41 40 40 39 38 38 38 39 39 38 37 36 36 35 33 32 32 31 31
56 55 55 55 54 52 50 50 51 50 50 48 47 47 47 47 46 42 42 41 41 41 39 38 37 37 38 38 38 38 37 36 35 35 35 34 33 32
57 57 57 55 54 53 49 50 50 50 49 49 49 48 46 47 45 45 43 43 42 41 39 38 38 37 37 37 37 37 37 36 35 35 34 34 34 34
57 57 56 56 54 53 51 48 48 49 48 48 49 48 47 45 45 45 44 44 44 44 41 37 36 36 36 37 36 37 37 36 36 35 35 35 34 34
57 56 56 55 54 51 50 50 49 48 47 48 49 48 47 46 45 44 44 43 42 45 43 42 36 36 36 36 36 35 37 37 36 36 35 35 35 35
58 57 57 56 55 53 49 49 49 49 48 48 48 48 48 48 46 45 44 43 42 43 44 42 42 39 38 37 37 37 36 36 36 36 36 35 35 35
59 58 58 57 55 54 52 50 50 50 48 47 49 49 50 50 49 46 45 43 43 43 44 41 43 41 41 41 39 38 37 37 36 37 36 36 36 36
59 59 58 57 56 52 53 51 50 50 49 47 47 49 50 50 50 47 45 44 42 41 43 40 41 41 42 42 43 41 38 38 37 37 37 37 37 36
59 59 57 57 56 51 52 52 51 50 49 47 45 44 43 44 42 43 44 42 41 40 43 41 40 40 37 41 43 45 42 38 37 38 38 37 37 37
58 58 59 55 55 52 51 53 53 52 49 48 45 46 45 43 42 39 41 43 41 40 44 43 41 41 39 38 40 42 43 43 40 38 37 38 38 37
56 57 58 57 54 51 50 52 51 50 50 47 47 45 45 44 44 43 40 41 44 42 44 44 42 41 40 39 39 39 41 42 42 40 39 38 37 37
56 56 57 58 53 50 49 49 48 49 50 49 47 47 45 45 44 42 42 41 41 40 41 44 42 43 41 40 38 37 37 40 42 41 41 41 41 38
49 53 51 54 51 51 46 45 48 50 50 50 50 49 48 45 44 43 41 41 40 39 40 39 43 44 42 42 41 40 40 40 40 41 42 41 41 41
49 52 49 48 49 49 49 46 47 47 47 49 49 47 46 46 45 44 43 43 42 40 41 42 42 41 42 42 41 41 40 40 41 41 40 39 40 41
47 50 48 47 48 48 48 47 46 46 46 47 47 47 46 44 43 43 43 42 42 41 41 40 40 40 40 40 42 40 39 39 39 39 39 39 38 39
46 48 46 46 45 46 46 46 45 45 45 46 45 44 44 43 41 41 40 40 39 39 39 39 39 38 35 34 37 39 39 38 38 37 38 38 37 38
39 39 40 41 42 43 44 44 43 43 43 43 43 42 41 40 40 39 39 38 37 38 39 39 39 38 36 34 35 37 38 39 38 37 36 37 38 39
34 35 37 38 39 40 40 40 40 39 40 39 39 39 39 38 38 38 39 39 39 39 37 36 38 39 40 39 37 37 39 38 38 36 35 33 34 34
30 30 31 32 34 36 37 37 37 37 37 37 37 37 38 38 38 38 38 37 37 37 37 37 36 35 35 33 32 32 32 36 36 37 36 35 31 29
30 30 30 30 31 31 32 32 33 33 34 35 36 36 35 36 35 35 34 34 33 32 32 32 32 32 32 32 31 31 32 32 32 32 34 36 36 36

GFSNE_sfc_30mbdewp_363.txt.gz
Dewpoint
52 52 54 52 50 48 47 47 42 40 41 41 42 44 42 43 42 45 42 43 41 41 42 43 43 43 43 41 40 39 38 37 36 36 35 35 34 34
53 52 52 54 54 50 48 48 48 43 41 42 43 44 44 42 43 43 41 42 41 40 41 42 42 43 43 42 41 39 38 37 36 36 35 35 34 34
54 53 52 53 53 53 50 49 48 48 45 45 45 45 44 43 43 43 41 41 41 41 40 40 40 41 42 42 41 40 39 37 36 35 35 35 34 34
55 54 54 54 53 53 52 49 48 49 48 46 47 46 44 43 42 42 40 40 41 41 40 40 39 39 40 41 40 40 39 39 38 37 36 35 34 34
56 55 55 55 54 54 53 51 50 49 49 48 47 47 45 45 42 41 42 42 41 40 41 40 39 39 38 39 39 39 39 38 38 37 37 37 36 34
57 57 56 55 55 55 54 53 51 50 50 49 48 47 46 46 45 42 41 42 41 41 41 40 40 39 38 38 38 38 38 38 38 37 36 36 35 35
58 57 57 56 56 56 55 54 51 50 49 49 48 48 46 45 44 44 43 42 42 42 41 40 39 39 39 39 38 38 38 38 38 37 36 36 35 34
57 57 57 56 55 54 54 54 53 50 49 48 48 47 48 46 46 45 44 43 42 45 43 42 39 38 37 37 37 37 37 37 37 37 36 36 36 35
58 57 57 57 56 56 53 52 51 48 49 49 48 47 46 48 46 45 45 44 43 43 44 43 40 38 38 37 37 37 37 36 37 37 36 36 36 35
58 58 57 57 57 56 56 55 53 52 48 46 48 48 48 49 48 47 46 45 44 44 45 41 43 42 40 38 38 37 37 37 36 37 37 36 36 35
59 58 58 58 57 55 56 56 55 54 52 48 47 47 48 49 50 48 46 44 43 42 44 42 40 41 41 42 42 39 38 37 37 37 37 37 37 36
59 59 58 58 57 55 55 56 55 54 53 52 49 48 47 48 48 49 47 45 42 41 42 42 40 39 38 38 41 42 42 39 38 38 38 38 37 37
58 58 58 57 56 55 52 56 56 55 54 52 52 50 50 47 47 48 49 47 43 43 42 43 40 38 38 36 37 38 40 41 41 39 38 38 38 38
58 58 58 56 55 55 53 52 54 52 55 54 52 51 49 47 46 46 44 46 46 45 43 43 39 39 38 37 38 38 39 40 40 39 40 39 38 38
53 55 56 55 54 53 51 52 50 53 54 54 50 50 48 48 48 46 45 42 42 43 44 45 41 39 40 39 37 38 37 38 40 40 40 39 39 39
48 49 50 50 50 51 51 53 50 53 53 53 50 50 48 47 46 45 43 42 41 40 41 44 43 42 40 40 39 39 38 39 40 41 41 41 41 41
49 50 50 50 50 50 51 51 53 50 52 53 52 49 48 46 46 45 44 42 41 39 38 40 41 43 43 41 40 40 40 40 40 40 40 40 40 40
45 46 46 47 48 49 49 49 49 49 51 50 49 49 48 47 46 45 45 43 42 40 39 39 40 40 40 41 42 40 39 39 39 39 40 39 38 38
37 38 39 40 42 43 43 43 44 46 47 47 47 47 47 46 45 44 44 42 41 40 40 39 39 39 39 38 37 40 38 38 39 39 39 38 38 38
32 32 33 35 37 38 39 39 39 40 43 43 44 44 44 43 42 42 41 41 40 38 38 39 39 39 37 35 35 37 39 38 38 37 37 37 38 39
29 30 30 31 32 35 35 36 37 37 38 38 38 39 39 40 39 39 38 38 39 38 38 37 38 39 39 39 35 34 35 36 36 33 32 32 31 33
29 29 29 30 30 31 31 33 34 34 35 36 36 37 37 37 37 37 36 36 35 36 34 34 35 35 34 32 32 32 32 33 35 36 36 34 31 29
28 28 28 29 29 30 30 30 31 31 31 32 33 33 34 32 33 33 33 32 32 32 32 31 31 32 31 31 31 31 30 31 32 31 30 34 34 33

GFSNE_sfc_30mbdewp_366.txt.gz
Dewpoint
52 52 51 49 50 49 47 45 43 41 41 42 42 44 42 40 40 43 45 46 45 44 44 44 44 44 45 44 43 42 41 40 39 38 38 37 36 36
53 52 52 53 54 51 49 48 46 44 42 43 42 43 44 42 42 42 44 44 45 43 42 42 43 44 44 44 44 44 43 41 39 38 38 37 36 36
55 54 53 52 52 53 53 50 49 48 45 45 44 44 44 43 42 44 43 42 43 43 42 41 42 43 43 44 44 43 43 42 40 39 38 37 37 36
55 55 54 54 53 52 52 53 51 49 48 46 47 46 44 44 43 43 43 41 41 42 42 41 41 41 42 42 43 43 42 42 41 40 39 38 37 36
56 56 55 55 54 54 53 53 53 52 50 48 46 47 46 44 43 43 42 41 41 41 41 41 41 40 40 40 41 41 41 41 40 40 39 39 39 38
58 57 56 56 55 55 55 55 55 54 54 50 49 47 47 46 44 42 41 41 41 40 40 41 41 41 40 40 39 39 40 40 39 39 38 38 38 37
58 58 57 57 56 55 55 55 55 55 53 52 51 50 47 45 44 44 42 42 42 42 41 41 40 40 40 41 40 40 39 39 39 39 38 38 37 36
58 58 58 56 56 54 53 54 56 55 54 52 51 50 48 47 47 45 44 43 41 44 41 41 41 40 40 40 40 39 39 39 38 38 38 38 37 37
58 58 58 58 57 57 53 52 52 53 54 54 52 52 50 49 49 47 45 44 44 44 43 43 43 41 41 40 39 39 39 38 38 38 38 37 37 37
59 58 58 58 58 57 56 56 54 54 52 51 54 54 52 51 51 50 48 46 46 45 45 42 42 42 42 41 39 39 38 38 38 38 38 37 37 37
59 59 59 58 58 56 56 56 56 56 55 53 52 53 52 51 50 51 49 46 45 45 45 43 42 41 42 42 41 39 38 38 38 38 37 37 37 37
58 59 58 58 58 56 56 56 55 56 56 56 53 50 49 49 47 51 50 47 46 43 44 44 43 40 40 38 42 42 40 38 38 38 38 38 38 37
57 58 59 57 55 55 54 57 56 57 56 55 56 55 53 52 51 49 52 51 48 46 46 45 43 40 40 39 36 38 42 40 39 38 38 38 38 38
56 58 58 58 56 54 53 54 53 54 56 56 56 55 54 53 52 51 51 52 52 50 48 46 42 41 40 39 39 38 37 39 40 39 38 39 38 38
47 50 51 52 51 50 50 51 50 51 51 53 54 54 55 54 53 52 52 51 53 52 50 45 44 41 41 41 39 38 38 38 39 38 38 38 37 37
45 48 49 49 48 48 47 49 49 51 51 52 52 54 55 55 53 53 51 49 47 46 46 45 45 42 40 40 39 37 38 38 38 38 39 39 39 39
37 43 45 46 47 48 49 49 49 50 50 51 50 51 52 53 53 51 49 47 45 45 42 43 45 44 43 40 39 39 38 38 39 39 39 39 40 40
36 35 35 36 37 39 40 42 45 48 48 49 49 50 50 51 49 48 47 45 43 43 42 40 41 40 41 41 41 39 39 39 40 40 40 38 38 39
30 30 30 31 33 35 36 37 37 39 42 45 46 47 49 49 46 45 45 43 42 41 40 40 40 40 38 37 38 40 38 38 38 37 38 38 37 38
29 28 29 30 30 30 32 33 35 36 37 38 38 39 40 42 42 42 41 40 40 38 38 38 39 39 37 34 33 33 37 34 34 33 33 34 35 37
27 27 28 28 29 30 30 31 32 32 34 35 35 36 37 37 37 37 37 37 37 36 35 35 37 39 39 38 33 31 32 34 34 32 32 31 31 31
26 26 27 28 28 29 30 30 30 31 31 31 32 33 34 35 35 35 35 34 35 34 32 32 34 34 33 32 30 30 30 32 34 35 34 34 31 26
25 26 26 27 28 28 29 30 30 30 31 31 31 31 32 31 32 32 32 32 32 31 31 30 31 32 31 30 29 29 29 30 29 26 26 25 23 25

GFSNE_sfc_30mbdewp_369.txt.gz
Dewpoint
47 45 45 45 48 47 47 45 43 40 41 42 42 44 42 40 40 43 46 46 47 46 46 46 47 47 46 46 46 45 45 43 42 41 41 40 39 39
51 50 49 48 49 50 49 48 47 44 43 44 43 44 44 43 41 41 41 45 45 46 45 45 45 46 46 45 45 45 45 44 43 42 41 40 39 39
54 53 52 51 51 53 54 52 50 48 46 46 46 45 44 44 43 43 41 42 43 45 45 44 44 44 44 45 45 45 45 44 44 43 42 40 39 39
56 55 54 54 53 53 53 53 54 53 51 48 49 48 44 44 44 43 43 42 42 42 44 44 43 43 43 43 43 44 44 44 44 43 43 42 40 39
57 56 56 56 55 54 54 53 54 54 54 51 50 51 49 46 45 44 43 43 43 42 42 43 43 42 42 42 42 42 43 43 43 42 42 41 41 41
58 58 57 56 56 55 55 55 54 54 53 53 52 52 52 49 46 45 43 43 43 42 41 41 42 42 42 41 41 41 41 41 41 41 41 40 40 40
59 59 58 58 56 56 56 56 55 55 54 54 53 53 53 48 47 47 46 47 43 43 41 41 41 41 41 42 41 41 40 40 40 40 40 40 39 38
59 59 59 57 56 55 54 55 56 56 55 54 54 53 53 52 51 50 48 46 44 44 43 42 41 40 41 41 41 40 40 40 40 40 40 39 39 38
59 59 58 58 57 57 55 52 51 52 54 55 55 54 53 53 53 51 49 48 47 47 43 43 43 41 42 41 41 40 40 40 40 39 39 39 39 38
59 58 58 58 58 58 57 57 56 54 52 52 54 55 56 55 54 53 51 50 50 50 46 45 44 43 43 43 41 41 40 40 40 39 39 39 38 38
58 59 59 58 58 57 57 57 57 57 56 54 54 54 53 53 55 54 52 50 48 49 46 47 46 44 43 44 43 41 40 40 39 39 39 39 38 38
56 58 58 58 58 56 56 57 56 56 56 57 56 52 51 52 50 53 54 50 49 48 49 45 46 43 43 41 43 42 41 39 39 39 39 38 38 38
48 53 57 57 56 55 54 57 56 57 57 56 56 57 56 54 54 53 53 53 51 50 50 47 46 44 45 45 38 42 43 41 39 38 38 38 38 38
42 45 48 48 47 47 48 48 49 49 51 52 54 55 55 55 56 54 54 53 53 53 53 48 48 47 44 44 44 38 41 42 40 39 39 39 38 38
40 41 42 44 45 47 49 48 45 47 49 49 50 51 52 54 56 56 55 54 53 52 53 53 50 48 47 45 44 40 39 38 40 40 39 38 38 37
38 41 40 39 40 42 44 46 48 48 49 48 48 49 51 52 53 55 54 54 52 52 52 52 52 50 46 47 46 40 40 41 38 39 39 38 37 36
34 34 33 33 34 36 37 38 39 40 40 45 47 48 48 49 49 51 51 52 52 51 51 47 48 48 46 41 40 41 39 40 39 38 38 38 39 40
30 29 29 30 30 31 32 33 35 36 37 38 40 42 44 47 47 48 49 49 49 51 49 41 40 40 39 39 39 38 38 38 38 39 39 37 37 38
27 27 27 28 28 29 30 31 30 33 35 35 36 37 38 39 40 44 47 49 45 43 39 39 40 40 38 35 35 34 36 36 36 36 37 36 32 32
26 26 26 27 27 28 28 29 30 31 31 32 34 34 35 36 36 36 38 38 38 37 37 37 38 39 37 33 28 29 34 33 32 31 31 31 32 33
25 25 26 27 27 28 28 29 30 31 31 31 31 31 32 35 35 35 35 35 35 34 32 32 35 37 35 33 29 28 30 33 33 32 31 30 29 28
24 25 26 27 27 28 29 29 29 31 30 31 31 31 31 31 31 32 33 32 31 31 30 31 32 33 32 30 28 28 29 28 28 29 31 32 29 23
24 25 26 26 27 28 28 29 29 30 31 31 31 31 31 30 31 31 31 31 31 31 31 30 30 31 30 29 28 27 27 24 21 20 22 24 22 23